CDT,Max TemperatureF,Mean TemperatureF,Min TemperatureF,Max Dew PointF,MeanDew PointF,Min DewpointF,Max Humidity, Mean Humidity, Min Humidity, Max Sea Level PressureIn, Mean Sea Level PressureIn, Min Sea Level PressureIn, Max VisibilityMiles, Mean VisibilityMiles, Min VisibilityMiles, Max Wind SpeedMPH, Mean Wind SpeedMPH, Max Gust SpeedMPH,PrecipitationIn, CloudCover, Events, WindDirDegrees
2013-6-1,60,56,51,55,50,45,94,81,67,30.04,29.77,29.56,10,10,4,25,11,31,0.00,8,Rain,326
2013-6-2,68,60,51,45,39,32,76,53,26,30.13,30.07,30.01,10,10,10,9,6,,0.00,3,,6
2013-6-3,73,60,46,46,43,37,87,53,29,30.04,29.96,29.85,10,10,10,24,7,34,0.00,1,,141
2013-6-4,64,60,57,59,54,46,94,81,55,30.04,29.96,29.85,10,9,2,22,10,29,0.36,7,Rain-Thunderstorm,154
2013-6-5,66,58,51,57,50,46,94,74,56,30.04,30.01,29.98,10,9,0,16,7,21,0.00,6,Fog,294
2013-6-6,62,56,51,52,50,46,94,78,59,30.05,30.02,29.97,10,8,3,10,5,17,0.00,6,Rain,6
2013-6-7,69,58,46,50,47,45,93,67,40,30.07,30.00,29.90,10,9,5,8,2,,0.00,2,,129
2013-6-8,60,58,55,57,52,46,94,83,67,29.90,29.81,29.70,10,7,2,28,11,33,1.14,7,Rain,136
2013-6-9,68,64,59,61,58,55,94,88,78,29.87,29.70,29.60,10,7,2,21,13,30,0.22,8,Rain,28
2013-6-10,77,66,55,63,58,54,94,79,54,29.91,29.86,29.82,10,7,0,9,5,16,0.00,4,Fog,151
2013-6-11,89,76,62,64,60,52,94,65,29,29.89,29.83,29.76,10,10,5,16,7,26,0.00,0,Rain,81
2013-6-12,71,66,60,64,58,50,83,73,56,30.06,29.87,29.69,10,9,4,29,14,33,0.00,5,Rain-Thunderstorm,24
2013-6-13,78,66,53,54,50,46,88,55,32,30.14,30.08,30.02,10,10,7,10,6,,0.00,1,,61
2013-6-14,82,73,64,64,58,54,73,58,45,30.06,29.92,29.80,10,10,10,29,12,36,0.00,2,,159
2013-6-15,78,71,64,63,61,55,94,73,44,30.01,29.92,29.87,10,10,2,22,5,28,0.35,1,Rain-Thunderstorm,13
2013-6-16,82,68,53,57,51,43,88,55,25,30.01,29.98,29.92,10,10,7,22,4,26,0.00,0,,265
2013-6-17,82,71,60,57,50,43,82,51,25,30.04,30.00,29.96,10,10,10,20,7,26,0.00,0,,317
2013-6-18,82,70,59,57,52,46,82,54,30,30.09,30.04,29.98,10,10,10,8,4,,0.00,1,,62
2013-6-19,87,74,62,61,56,50,77,53,30,30.03,29.97,29.89,10,10,7,20,6,24,0.00,2,Thunderstorm,168
2013-6-20,89,78,68,68,64,61,83,61,43,29.95,29.89,29.82,10,10,10,24,12,32,0.00,3,,165
2013-6-21,89,78,68,70,66,59,83,68,46,29.90,29.84,29.79,10,10,7,29,12,37,0.00,3,Rain-Thunderstorm,125
2013-6-22,77,70,64,68,64,61,94,78,61,30.00,29.89,29.76,10,9,1,25,13,41,1.80,4,Rain-Thunderstorm,104
2013-6-23,80,72,64,66,62,59,88,72,51,29.93,29.83,29.69,10,10,2,23,9,32,0.18,2,Rain-Thunderstorm,265
2013-6-24,80,71,62,68,64,61,94,80,61,29.93,29.84,29.77,10,9,2,15,3,26,0.41,3,Rain-Thunderstorm,138
2013-6-25,87,78,68,72,67,63,94,72,45,29.80,29.74,29.71,10,10,5,15,4,21,0.00,0,,154
2013-6-26,87,78,69,70,63,52,94,63,29,29.89,29.80,29.69,10,9,3,16,5,26,0.00,0,,323
2013-6-27,87,78,68,66,59,46,88,58,25,29.99,29.94,29.89,10,10,10,18,5,26,0.00,1,Rain,298
2013-6-28,82,72,62,59,52,45,77,49,26,29.99,29.95,29.92,10,10,10,29,12,41,0.00,1,,325
2013-6-29,78,69,60,59,54,48,82,58,34,30.01,29.95,29.90,10,10,10,22,11,31,0.00,2,,352
2013-6-30,77,67,57,54,49,41,82,54,31,30.18,30.12,30.02,10,10,5,10,5,18,0.00,0,,31